TIMESTAMP,CO2_1_1_1,H2O_1_1_1,TAU_1_1_1,TAU_SSITC_TEST_1_1_1,H_1_1_1,H_SSITC_TEST_1_1_1,LE_1_1_1,LE_SSITC_TEST_1_1_1,FC_1_1_1,FC_SSITC_TEST_1_1_1,WD_0_0_1,WS_0_0_1,WS_MAX_0_0_1,U_SIGMA_0_0_1,V_SIGMA_0_0_1,W_SIGMA_0_0_1,USTAR_0_0_1,MO_LENGTH_0_0_1,ZL_0_0_1,FETCH_MAX_0_0_1,FETCH_70_0_0_1,FETCH_80_0_0_1,FETCH_90_0_0_1,PA_0_0_1,RH_0_0_1,TA_0_0_1,VPD_0_0_1,T_SONIC_0_0_1,T_SONIC_SIGMA_0_0_1
[yyyymmddHHMMSS],[mmolCO2 mol-1],[mmolH2O mol-1],[kg m-1 s-2],[#],[W m-2],[#],[W m-2],[#],[umolCO2 m-2 s-1],[#],[Decimal degrees],[m s-1],[m s-1],[m s-1],[m s-1],[m s-1],[m s-1],[m],[#],[m],[m],[m],[m],[kPa],[%],[deg C],[hPa],[deg C],[deg C]
20211023003000,417.92293235877941,6.7251809796652049,0.24253204411349519,0,-14.677716230787231,2,17.441023471526464,1,1.9275449846503909,1,339.19617490159885,2.0817280039025938,5.8062895948631086,0.93639480153682431,0.65912347052475340,0.51702373467510765,0.45194912190572406,524.23955212994451,3.6242973127083751E-002,112.43930512838003,205.57491045176445,246.02066324601819,307.98867651009039,93.937416276157464,91.289655172413788,1.7662068965516937,0.60293826632534320,1.2878480118292828,0.24101002498738711
20211023010000,418.46854954499855,6.8431225049741862,8.2918208730849333E-002,1,-6.6028618819602229,0,13.371813974117659,1,0.68700433003146633,0,0.36710689386285367,1.4255638986207397,3.3537056733412149,0.48644198646068793,0.45655071986168383,0.33805128778298593,0.26414389580332986,232.65543083399791,8.1665834886771677E-002,102.78773286366341,187.92875814076930,224.90272581994341,281.55152479826182,93.936517892396040,94.599999999999994,1.5116666666666561,0.36703533370549962,0.95047128039186646,6.3179811861542742E-002
20211023013000,418.88590044333159,6.6876748844371896,4.9301474861848708E-002,0,-9.7214567509494607,0,3.4309478427192381,0,1.2945057872948877,0,355.60350774891708,1.3932070811883059,3.5768516250753595,0.53103016616497489,0.41339675146299604,0.28190704685701357,0.20367510392674412,72.440384224219102,0.26228463865115309,96.542938052045855,176.51128154997974,211.23892240497847,264.44606432862292,93.932231895774876,92.486666666666665,1.5056666666666843,0.51045775103653002,0.99155763689049081,7.2569228470706057E-002
20211023020000,419.69635589131502,6.5531175875287859,4.7915703603395483E-002,0,-7.7962984954602650,0,5.3155814570477826,0,1.2965608671289608,0,346.56421680003189,1.6200865945770471,3.2476613149078641,0.44352733929394600,0.37156976052743096,0.25473486733508394,0.20076709178243096,86.513885001975410,0.21961792606546526,103.49948935929687,189.23007601787862,226.46007095761991,283.50113610933602,93.934782286675343,90.936666666666667,1.4583333333333144,0.61367692745288760,0.99301343536376407,6.4643580979323878E-002
20211023023000,420.93781448635229,6.5383465208498679,2.0906060185509598E-002,0,-2.8295172528242323,0,3.1814414857471651,1,0.60738932006417456,0,342.41882665611502,1.4350086446711521,2.7150680018071842,0.33691575209266605,0.22800523163028855,0.17133440599812699,0.13258603353128037,68.657570824872153,0.27673568656345454,154.47436958407891,1426.0000000000000,2614.0000000000000,7046.0000000000000,93.938548857204864,91.413333333333341,1.3546666666666738,0.57708969390754650,0.95072357432047738,4.2888313381351954E-002
20211023030000,421.40457746708609,6.4648157168199134,6.8786853301661790E-003,0,-1.2626545488709151,0,1.5465589148265277,0,0.30810773133739872,0,333.99131933806603,0.87625430178820607,1.6163441558139402,0.22594436626147510,0.13942124030688025,9.3237848523234121E-002,7.6041860222568688E-002,29.028396604232725,0.65453150096583523,186.77821034393796,1779.0000000000000,3292.0000000000000,9016.0000000000000,93.952913385086759,90.583333333333329,1.3263333333333094,0.63158496055254432,0.95295883223650435,4.4494675468243199E-002
20211023033000,421.61615652446915,6.3793374872007265,1.2609530664657339E-002,1,-1.4239007959601173,1,0.27350040354582605,2,0.35646860743229319,1,329.63332019250294,1.2898053896815522,2.0282553227185627,0.20644002676899303,0.19741963663953649,9.2860895785356778E-002,0.10295538765289279,63.883510379694890,0.29741634245007098,194.44863234199002,1854.0000000000000,3431.0000000000000,9400.0000000000000,93.946274612391989,89.450000000000003,1.3153333333333421,0.70703959490492485,0.95184589870746095,4.2874513373437242E-002
20211023040000,420.53111974114961,6.2400502769144017,2.6504219592637716E-002,0,-5.7504713645601822,0,3.7245554314838070,0,1.1915806200645374,0,312.80201115327600,1.6575683298742050,3.0053355232573051,0.39675589464708672,0.31486081348995976,0.20603114111908738,0.14927621414638018,48.209402268199831,0.39411399241788342,166.32940446493467,1583.0000000000000,2928.0000000000000,8014.0000000000000,93.931735169270837,87.393333333333331,1.3296666666666397,0.84574390861311033,0.99433525170223902,8.8144602810950615E-002
20211023043000,420.36099595639359,6.2629849155711455,4.2976263391741154E-002,0,-10.283981842914052,0,3.4359139549341622,0,1.8132871766284100,0,315.46733250660168,1.5135364475566280,3.3685654003394760,0.40402903572313043,0.36986612482906522,0.25941870105872905,0.19012089177945141,55.686141030884386,0.34119800094357966,94.646127418658182,837.00000000000000,1517.0000000000000,4001.0000000000000,93.917661389973972,87.319999999999993,1.3903333333333308,0.85437914977539320,1.0493324534098747,9.5416204535094890E-002
20211023050000,420.42451046972280,6.2772820482495835,1.7092218286074268E-002,0,-3.7699591138953306,0,0.62125064116029416,0,0.50342809693073609,0,289.77310970927260,1.9775226962985555,2.9650860561127383,0.40853102124953489,0.39020171292512745,0.16045436479636721,0.11989966458962383,38.094570231569847,0.49875874394966302,319.50869746216665,3323.0000000000000,6305.0000000000000,-9999.,93.895333046562399,87.893333333333331,1.3276666666666870,0.81208367188599595,1.0179798934782411,8.1980704214509079E-002
20211023053000,419.85882278574815,6.2418280467771234,3.0061824613198975E-002,1,-2.2354645504360358,2,6.8506777957682123,1,1.4635832838302469,1,284.91106202882639,2.1532058285365356,3.0990537380948266,0.30381121238063719,0.36187332677512141,0.17188538342726850,0.15898615022912882,149.78391179831993,0.12684940439787015,204.80660784370588,1709.0000000000000,3046.0000000000000,7808.0000000000000,93.899034546190080,87.843333333333334,1.2573333333333494,0.81132546588588184,0.96873984844182814,0.11825767720842009
20211023060000,420.64184432061899,6.1791724074670675,6.6275399193484449E-002,0,-15.213243356634100,0,-3.1622371450219369,2,0.69165339769775780,1,287.46908812626464,2.4206440144877588,3.9859960786836037,0.48888813988758201,0.40960241302241640,0.27593896022408165,0.23585753990333710,71.867152600417981,0.26437669105439826,110.43946458719138,201.91856412604443,241.64495053801315,302.51080344062711,93.915648203993058,89.663333333333327,0.83499999999997954,0.66919145033618521,0.50702740478516262,0.19564574320836664
20211023063000,419.54016517780019,6.0403370008907604,4.6603533321437393E-002,0,-11.647521491773702,0,0.52069979723023951,1,0.87891310770355635,0,286.42404716931651,2.5107763495600168,4.0803693429896422,0.45385218336648941,0.35405875737176551,0.25629600345037745,0.19771293732575487,55.289213504158660,0.34364750004213546,201.99499960188234,1957.0000000000000,3638.0000000000000,-9999.,93.908617855251734,88.870000000000005,0.64233333333334031,0.71059652842723720,0.33808810933430777,0.12911643973735548
20211023070000,420.05565229575910,6.0862469936418160,4.4055947616184754E-002,0,-10.468202830301919,0,0.68924737179336915,2,0.55749422112999780,1,287.93118238073782,2.3554083077225361,3.9034003558590094,0.45105696455535521,0.36609716267089643,0.24116172945696973,0.19223885243776934,56.546589679031705,0.33600611651113377,190.68947389767689,1832.0000000000000,3398.0000000000000,9345.0000000000000,93.903503292968750,89.560000000000002,0.63933333333335440,0.66639888387950119,0.30983123694528558,0.11534600029270178
20211023073000,419.66876366227297,6.0716336254484355,3.1466030758943130E-002,0,-5.9233726561264861,0,0.62651268454819242,1,0.52156723170076624,0,284.82331135447077,2.3398655414448450,3.5882815120318718,0.36330148856459676,0.25152125227978389,0.20450393527238966,0.16250322270770290,60.355951704529666,0.31479911199170213,240.80369330603804,2365.0000000000000,4413.0000000000000,-9999.,93.887978586379390,88.783333333333331,0.72433333333333394,0.72038455494562526,0.41828160417890103,0.17706205006491504
20211023080000,418.97439946961327,6.1490395485376652,2.5417747987156427E-002,0,-2.3043027279879293,2,0.97279802501370172,1,3.5192322794205033E-002,2,285.72097145346373,2.4423503532436444,3.6102115489172988,0.33239731662030603,0.31563470009205052,0.20028058285062444,0.14615729148339471,112.87791518443326,0.16832344900200855,275.94854949860502,2490.0000000000000,4537.0000000000000,-9999.,93.880758941406256,87.583333333333329,1.0876666666666779,0.81862293848937950,0.83619962480338472,0.26742736727888022
20211023083000,420.45395783608103,6.2157473673589099,3.2093118080605811E-002,0,-9.2397402863140670,0,-0.54724238134187664,0,0.54126633517927270,0,288.64470708868487,2.2130086141878009,4.0020809364531784,0.43375707841089395,0.33965520538507704,0.21792262788298880,0.16423116907946703,39.940177246782149,0.47571145923071156,232.00892728948219,2311.0000000000000,4330.0000000000000,-9999.,93.884137439236113,88.536666666666662,1.0876666666666779,0.75577027797717511,0.76304269663501145,0.18481778591913062
20211023090000,421.49210183763370,6.2329552826907726,5.0118963362489465E-002,0,-8.1604202482216035,1,-0.92758464527376372,1,0.12704022412708271,2,295.31637332050292,2.3360294506028931,3.8099683881905038,0.51257195651523502,0.32300982384355104,0.26424498977740102,0.20513155807666766,88.125384425764736,0.21560189636398425,102.25286223382035,186.95084404117821,223.73241240547895,280.08643127779408,93.888204445749636,90.500000000000000,0.82233333333334713,0.61446415045077862,0.50725991275106708,0.15777228484362582
20211023093000,422.76790337868800,6.2110789390654313,8.8973341110797827E-002,0,-9.2837185747082582,0,0.60055180051452228,1,2.1117366146837822,0,288.95523066254333,2.2428702422173847,4.4408078610365678,0.66134059545646617,0.56693139377306057,0.38911496075849777,0.27322083851611700,183.04147105077030,0.10380161332253476,94.363406954100896,172.52640357714549,206.47004122353118,258.47599098547823,93.893183396701403,91.296666666666667,0.65300000000002001,0.55609410057646869,0.27480963049993079,9.3445550036633490E-002
20211023100000,422.15006946388115,6.1890629319920860,7.8793071579036950E-002,0,-12.215639967367849,0,1.1516610948946777,2,1.7803989458487548,1,275.80913173491530,2.1592742161546434,4.1023158177517995,0.52681546607061769,0.42772990110834713,0.31752377486049754,0.25706830193240210,115.87090756063361,0.16397558627956346,105.74813667233315,193.34132047538600,231.38018054677039,289.66052947350943,93.898360905552011,91.523333333333341,0.57033333333333758,0.53838464579317136,0.25293471650797983,0.12041131776359262
20211023103000,423.48732904087632,6.2696191466124214,5.7404010325154298E-002,0,-12.838467621838630,0,-0.35768341523577363,1,0.93232478950841746,0,272.03252890700026,2.1641262892467164,4.4922278318231834,0.54107357519535937,0.43528271072785440,0.25695243090888842,0.21933166367348192,68.472349959130227,0.27748426936333748,110.31988019270190,201.69992571343118,241.38329619914484,302.18324325739741,93.890797123914936,94.400000000000006,0.32033333333333758,0.34929848196620922,9.4231499566035382E-003,0.13766221845525431
20211023110000,423.65544209850742,6.3351882538520607,0.13224207610997618,0,-16.163492202492108,0,0.42079333687777498,2,1.7086985629875746,0,276.88229272078729,2.2655573535055362,4.8332674129445738,0.64124642409249077,0.43234859304591244,0.37446826645607756,0.33282502145117665,190.06350137564363,9.9966589389764993E-002,113.94510123411629,208.32798598208640,249.31539151051189,312.11328533055797,93.908157315104162,95.966666666666669,0.23933333333332030,0.25010537674502187,-7.0044265747071677E-002,0.13585224112394995
20211023113000,424.45159391757670,6.4242549502703596,0.14992637520593913,0,-9.1213615752670840,0,-0.36345712271709113,2,1.5210438952167387,0,286.99036164386047,2.4813897784952181,5.3793787545374308,0.72559065362637332,0.56969517081211474,0.42266053047313468,0.35451222303016910,407.07485165286920,4.6674462750163070E-002,108.78437367804032,198.89253007994483,238.02356064471130,297.97725302397077,93.922251446180553,95.689999999999998,0.47399999999998954,0.27184318968009846,0.13375197177464315,0.11772386871268799
20211023120000,425.60248985026772,6.3430118202144303,0.14486739227302969,0,-24.084237097481431,0,-2.3822850094522718,1,2.3958569567581431,1,290.11137974753296,2.4666522572667771,5.5419104279426747,0.76735295608802490,0.52336271427071190,0.38243493772636872,0.34828903153354085,146.19590914779937,0.12996259683840819,116.18784302535720,212.42843326228228,254.22257963605807,318.25650255561538,93.927049099175349,96.400000000000006,0.19700000000000273,0.22255028008682756,-0.12768542819554796,0.16441624421754372
20211023123000,426.62385850424238,6.3151271988367572,7.9576938546465983E-002,0,-11.069057832328715,0,3.2261386179314822,1,1.1404918852428014,1,291.03324774089140,2.5477562626113803,4.7652575856054122,0.66050565373230696,0.51564070072042822,0.31917018133444225,0.25800284778543747,129.31236488161275,0.14693103801322296,105.61768673901632,193.10281639241049,231.09475207424148,289.30320689607788,93.936712315844488,97.746666666666670,-5.3333333333341670E-002,0.13679096810098146,-0.36082166259245696,0.11931798016346144
20211023130000,426.06647705537949,6.3604210857566450,9.6246023652467164E-002,0,-11.313580199632334,0,-3.0005794220116808,1,1.1455784593948213,0,282.95834604620853,2.5889126647691669,4.5329257385213584,0.58632856617673812,0.46220350858107162,0.32998716324896676,0.28376007330092073,168.33522642556770,0.11287001778205452,110.97324697384531,202.89448857000841,242.81288284285711,303.97291609440276,93.948936734247368,97.980000000000004,1.4000000000010004E-002,0.12322764580471017,-0.35126238148518496,0.17074327420195692
20211023133000,425.57928641551069,6.4471214816117088,0.10107804243292791,0,-1.4360868468848575,2,3.3558670221473221,1,0.37986041875337140,1,296.25706512981020,2.1656395526213159,4.1303193894312606,0.61600580807762240,0.54746172390150261,0.34219339469946997,0.29090190744882471,1428.8922272101549,1.3297014035198867E-002,109.96003191368334,201.04200829166305,240.59593707974258,301.19756307133770,93.952539182087946,97.883333333333340,0.21466666666668743,0.13101908886258001,-0.25830972660702400,0.22512450420353186
20211023140000,423.54392629724646,6.7101265995975492,8.6939593907448418E-002,0,5.0174434561836829,0,4.1404376993038765,0,2.4731552882592696,0,295.52362105636905,2.2868580503321971,4.5527393011683488,0.66226141917504433,0.53592269531028902,0.35164675085717428,0.27019407412559637,-327.76937553333977,-5.7967587634090524E-002,101.41688532353142,185.42241162800943,221.90326917400117,277.79656100601585,93.970452177951387,95.873333333333335,1.0576666666666483,0.27148139536509802,0.54528336249461518,0.26839157072764203
20211023143000,422.18790330620988,6.7764521231983856,0.13750612318016428,0,19.152307135502340,1,7.4389461749619121,1,2.0388471921692206,1,298.17212749144545,2.0927686277263731,4.5732900465499755,0.75550402516344606,0.62141214115648458,0.48118917618683349,0.34022277292528419,-171.44061862762678,-0.11082554503182507,94.888356350079334,173.48617849701677,207.61864667268219,259.91390870933441,93.974232728298617,92.203333333333333,1.7386666666666883,0.53862931620179100,1.1385146094428933,0.21989394325685208
20211023150000,419.63053322452760,7.0344703627093583,0.31141504646891499,0,63.008628341572674,0,25.614418346826746,0,4.4208325925514078,1,314.58360185086508,1.5781100499692311,5.0320961242274613,0.95905697376977839,0.55381590573202832,0.50585696157066007,0.51314114848736203,-178.79604628927191,-0.10626633191463380,126.65495601471756,231.56565412129967,277.12494528989453,346.92754666064508,93.967228185727237,88.010000000000005,2.9150000000000205,0.90076491502699929,2.3750238502724983,0.48026076775740356
20211023153000,417.27369870514372,7.0673848555558765,0.37660656929841613,0,144.26901294245963,0,54.082379489997749,0,1.4556897384447216,1,323.99520519127395,2.3396460456622763,5.6404971373575084,1.1733939716969868,0.77889334232634466,0.61831240634451146,0.56513630120689062,-104.30773110924846,-0.18215332457092781,116.52284914300002,213.04093129005454,254.95558334112241,319.17413621297209,93.959688467175084,83.599999999999994,3.7069999999999936,1.3030298346079963,3.0302983712957143,0.35709754403356780
20211023160000,416.66412774229724,7.0087756801506371,0.33583526239661726,1,145.88498811182313,0,15.276917279805211,2,-2.5264554303797331,1,340.65027160934568,2.0279131327175914,6.7635348719013182,1.1302364590513378,0.85838943174080529,0.62918040560648170,0.53418458376973954,-87.108676905722959,-0.21811833992799076,109.84690600202971,200.83517804550124,240.34841410026883,300.88769367318184,93.950264673394088,79.960999999999999,4.2199999999999704,1.6506480228177145,3.5036991661919501,0.39991838636212690
20211023163000,416.74337155152318,6.7399508567548336,0.37130799918212060,1,205.32127896855536,0,107.20474620910487,0,-2.0595900865598580,1,333.32995381153353,1.7927608430358648,5.8472496847783635,1.0798584327377423,1.1133707823902970,0.69229454589262240,0.56251128302359266,-72.265851683700049,-0.26291809419421197,106.05402659104020,193.90058480536831,232.04947711165627,290.49840935112690,93.946962543619804,72.544666666666672,5.0520000000000209,2.3970505005795881,4.2779767854479473,0.44260851804004919
20211023170000,415.60817206292603,6.5490496944179393,0.45797157085855811,0,170.32396350575982,0,66.782272590419311,0,-3.8740205198856996,1,331.98041398769806,1.8274780826937267,7.6430839769326679,1.2572704946082689,0.78912261176853671,0.64153832968661484,0.62427985204143077,-119.08209602817115,-0.15955379216288892,122.51246202024859,223.99185391871387,268.06104082296207,335.58061383007686,93.955122203060753,72.214333333333329,4.7069999999999936,2.3681687284196937,4.1371772085174712,0.39575022114122022
20211023173000,415.22070779440270,6.4482824256808353,0.27411023088804176,0,110.25856736361987,0,60.131626511687379,0,-2.4904499498424881,0,323.46828050622315,2.0002144445518737,6.2653713884716398,1.3044336239065710,0.97181997912012263,0.52254311790363539,0.48357804614050082,-85.479654794630420,-0.22227511383438020,117.68753186066320,215.17034275444371,257.50394500471958,322.36438261619992,93.923034807074657,68.108000000000004,5.3193333333333612,2.8367187217205458,4.5903556060791288,0.33432397007689019
20211023180000,414.80381614419287,6.2410926169477206,0.43313785038807540,1,283.64334190907732,1,38.744477211527055,1,-4.0314934374574376,1,327.85178365449167,1.2129736937261606,5.8539785474984862,0.96091653576249003,0.77497002174557372,0.61672046935635305,0.60833441030656288,-66.132876925578756,-0.28730036985055485,123.85060020586695,226.43839729930926,270.98892839363651,339.24598163278296,93.892685166883680,64.318666666666672,5.6686666666666952,3.2517182455214426,4.9732898033989272,0.62477104715854903
20211023183000,415.94980255409985,6.4047211037391705,0.21266766717239211,0,33.695220162758105,0,-3.3966361636661278,2,-0.79867365978061966,0,13.973189774576866,1.9158012926216867,5.1430051658714069,0.99939680981488410,0.84119215351277110,0.45829361697593535,0.42599689960199871,-191.14872747010497,-9.9399039959455329E-002,118.10410793772050,215.93197668342987,258.41542629369627,323.50544902969432,93.877185120999115,67.921333333333337,5.2543333333333067,2.8404481575996501,4.7191912157372826,0.22376290577059929
20211023190000,415.15926951639847,6.5575511439522511,0.13178020172231300,1,68.650186496716671,1,33.153654507073156,0,-2.9777943706530960,1,2.8998052442694018,1.3903907386015717,4.1116309644187430,0.64466657636657698,0.55104400210378024,0.43841131221575730,0.33537700393867054,-45.779406977428195,-0.41503377292257326,101.05926215050297,184.76856240965242,221.12077865504833,276.81697572998968,93.871282045271442,69.375000000000000,5.2880000000000109,2.7180911482557018,4.8001102119179109,0.22094767988389866
20211023193000,415.13949878037755,6.6072699668768644,0.20511891162135562,1,54.663435004392397,0,26.121267208343230,0,-0.69415372360246053,0,27.218350310458277,1.3042467214444133,3.9311518285997842,0.61975208280330907,0.69053393116101847,0.45534226003507478,0.41840812567615665,-111.62629196266204,-0.17021079591495636,117.02121983180120,213.95211185636191,256.04603376022851,320.53925074013893,93.855527531487866,70.210999999999999,5.2219999999999800,2.6317773940342160,4.7575333982828738,0.16485654870900063
20211023200000,415.23737103546233,6.5121781647286152,6.0861810854759300E-002,0,37.788878299981896,1,5.5367936475221686,2,-1.1880418190515223,1,298.95443326795322,1.0856304801342571,5.1034972868047728,0.98215206399040633,0.82847720392662283,0.44735510119444977,0.22800012220588026,-26.124756463631858,-0.72727950694774146,73.026594516470780,133.51590541385875,159.78443834233093,200.03115609338613,93.841443287543399,68.327666666666673,5.4023333333333312,2.8334848896123264,4.9425685865614923,0.20991374522034897
20211023203000,415.26838007126412,6.2125273241056265,0.45583917877180796,0,60.492495958021536,0,21.653641810669335,0,-9.5573595601250168E-004,2,275.66432126588711,2.6098546092247057,6.6382453795566745,1.2704886522956746,0.87437570051567404,0.61608672230122230,0.62430654321464207,-335.00547812844127,-5.6715490463458605E-002,126.54929494221798,231.37247198189979,276.89375560843973,346.63812461342923,93.831756444227437,63.845333333333336,5.6996666666666442,3.3019450398406684,5.1652545098198743,0.15348082544503619
20211023210000,415.09959760940154,6.2890463206598142,0.35539326137443938,0,60.044900038866665,0,37.925498861806808,1,-0.18099608709181680,1,287.66686197967340,2.5502097681458769,6.1543276003933292,1.0407601904204407,1.0723887976595510,0.61574562447685011,0.55129116010881540,-232.38700323177926,-8.1760166170092088E-002,114.61426012524245,209.55142185234723,250.77953177733281,313.94621520341326,93.825569941540834,64.548333333333332,5.7173333333333289,3.2417096069933224,5.1783755286955397,0.16746983918828914
20211023213000,415.51334593817262,6.7082080912575579,9.1346083216505530E-002,0,28.671787163028444,0,-7.8915961657738665,1,-0.86308410751244757,0,1.2673773610828505,1.4638493930095364,4.6242576901417358,0.69051343923933106,0.56953239011482093,0.38219517858869179,0.27908839708605732,-63.148861705288319,-0.30087636557364689,97.368877111004679,178.02136156950860,213.04610250853599,266.70843937048460,93.833415631597589,72.940333333333328,4.8890000000000100,2.3357977166054162,4.4322736018564228,0.27180803291010774
20211023220000,415.79866617315361,6.6879555886824553,0.12584438244824053,0,0.45157223077162056,1,13.227599299694658,0,0.46100902944887640,0,326.82122683288247,1.3991000542089429,6.7465675593763237,0.86839206891626641,0.84021876166390064,0.39094016437365958,0.32751512859885973,-6480.4182604711405,-2.9319095213182519E-003,108.68053294261368,198.70267609728100,237.79635391684644,297.69281716201510,93.846462231770829,73.059333333333328,4.8243333333333567,2.3150501253566027,4.4645970009698317,7.9709919064472293E-002
20211023223000,416.20364562480694,6.5488354521110370,0.32145854048174610,0,8.2751635216413035,0,37.494488158222964,1,1.5368567479594517,0,313.36752349053398,2.0461345211365036,6.7614839977920811,1.1172093521371824,0.92176722059023264,0.61043619660383097,0.52320153135103720,-1441.7147409779595,-1.3178751288283086E-002,110.68222544716134,202.36240840267470,242.17611877772961,303.17576304603585,93.853805366319449,72.703000000000003,4.5946666666666829,2.3083147761029092,4.1698953751458703,0.17327158845531587